Time,TemperatureF,DewpointF,PressureIn,WindDirection,WindDirectionDegrees,WindSpeedMPH,WindSpeedGustMPH,Humidity,HourlyPrecipIn,Conditions,Clouds,dailyrainin,SoftwareType,DateUTC
2013-12-22 00:01:00,36.9,35.9,29.86,West,264,0.0,0.0,96,0.00,,,0.00,WeatherCatV1.15B25,2013-12-22 05:01:00,
2013-12-22 00:02:00,36.8,35.8,29.86,West,264,0.0,0.0,96,0.00,,,0.00,WeatherCatV1.15B25,2013-12-22 05:02:00,
2013-12-22 00:04:00,36.8,35.8,29.86,West,264,0.0,0.0,96,0.00,,,0.01,WeatherCatV1.15B25,2013-12-22 05:04:00,
2013-12-22 00:07:00,36.8,35.8,29.86,West,264,0.0,0.0,96,0.00,,,0.01,WeatherCatV1.15B25,2013-12-22 05:07:00,
2013-12-22 00:08:00,36.8,35.8,29.86,West,264,0.0,0.0,96,0.00,,,0.01,WeatherCatV1.15B25,2013-12-22 05:08:00,
2013-12-22 00:10:00,36.7,35.7,29.86,West,264,0.0,0.0,96,0.00,,,0.01,WeatherCatV1.15B25,2013-12-22 05:10:00,
2013-12-22 00:15:00,36.6,35.6,29.86,West,264,0.0,0.0,96,0.05,,,0.02,WeatherCatV1.15B25,2013-12-22 05:15:00,
2013-12-22 00:20:00,36.5,35.5,29.86,West,264,0.0,0.0,96,0.05,,,0.02,WeatherCatV1.15B25,2013-12-22 05:20:00,
2013-12-22 00:25:00,36.4,35.4,29.87,West,264,0.0,0.0,96,0.05,,,0.02,WeatherCatV1.15B25,2013-12-22 05:25:00,
2013-12-22 00:30:00,36.3,35.3,29.87,West,264,2.0,2.0,96,0.16,,,0.04,WeatherCatV1.15B25,2013-12-22 05:30:00,
2013-12-22 00:35:00,36.2,35.2,29.87,West,264,0.0,0.0,96,0.10,,,0.04,WeatherCatV1.15B25,2013-12-22 05:35:00,
2013-12-22 00:40:00,36.2,35.2,29.87,West,264,0.0,0.0,96,0.09,,,0.05,WeatherCatV1.15B25,2013-12-22 05:40:00,
2013-12-22 00:45:00,36.3,35.3,29.88,West,264,2.0,2.0,96,0.12,,,0.06,WeatherCatV1.15B25,2013-12-22 05:45:00,
2013-12-22 00:50:00,36.4,35.4,29.88,North,5,2.0,2.0,96,0.16,,,0.08,WeatherCatV1.15B25,2013-12-22 05:50:00,
2013-12-22 00:55:00,36.5,35.5,29.88,North,5,0.0,0.0,96,0.10,,,0.08,WeatherCatV1.15B25,2013-12-22 05:55:00,
2013-12-22 01:00:00,36.4,35.4,29.88,North,0,0.0,0.0,96,0.08,,,0.09,WeatherCatV1.15B25,2013-12-22 06:00:00,
2013-12-22 01:05:00,36.3,35.3,29.88,North,0,0.0,0.0,96,0.12,,,0.10,WeatherCatV1.15B25,2013-12-22 06:05:00,
2013-12-22 01:10:00,36.1,35.1,29.88,North,0,0.0,0.0,96,0.07,,,0.11,WeatherCatV1.15B25,2013-12-22 06:10:00,
2013-12-22 01:15:00,36.0,35.0,29.88,North,5,0.0,0.0,96,0.15,,,0.12,WeatherCatV1.15B25,2013-12-22 06:15:00,
2013-12-22 01:20:00,35.8,34.8,29.88,North,5,0.0,0.0,96,0.09,,,0.12,WeatherCatV1.15B25,2013-12-22 06:20:00,
2013-12-22 01:25:00,35.6,34.6,29.88,North,0,0.0,0.0,96,0.07,,,0.13,WeatherCatV1.15B25,2013-12-22 06:25:00,
2013-12-22 01:30:00,35.5,34.5,29.89,North,5,0.0,0.0,96,0.13,,,0.14,WeatherCatV1.15B25,2013-12-22 06:30:00,
2013-12-22 01:35:00,35.4,34.4,29.89,North,5,0.0,0.0,96,0.26,,,0.16,WeatherCatV1.15B25,2013-12-22 06:35:00,
2013-12-22 01:40:00,35.3,34.3,29.89,North,0,0.0,0.0,96,0.11,,,0.17,WeatherCatV1.15B25,2013-12-22 06:40:00,
2013-12-22 01:45:00,35.4,34.4,29.89,North,0,0.0,0.0,96,0.20,,,0.18,WeatherCatV1.15B25,2013-12-22 06:45:00,
2013-12-22 01:50:00,35.6,34.6,29.89,North,5,0.0,0.0,96,0.24,,,0.20,WeatherCatV1.15B25,2013-12-22 06:50:00,
2013-12-22 01:55:00,35.6,34.6,29.90,North,5,0.0,0.0,96,0.12,,,0.21,WeatherCatV1.15B25,2013-12-22 06:55:00,
2013-12-22 02:00:00,35.5,34.5,29.89,North,0,0.0,0.0,96,0.19,,,0.22,WeatherCatV1.15B25,2013-12-22 07:00:00,
2013-12-22 02:03:00,35.4,34.4,29.90,North,5,0.0,0.0,96,0.12,,,0.23,WeatherCatV1.15B25,2013-12-22 07:03:00,
2013-12-22 02:08:00,35.4,34.4,29.90,North,5,0.0,0.0,96,0.14,,,0.24,WeatherCatV1.15B25,2013-12-22 07:08:00,
2013-12-22 02:13:00,35.3,34.3,29.90,North,5,0.0,0.0,96,0.10,,,0.24,WeatherCatV1.15B25,2013-12-22 07:13:00,
2013-12-22 02:18:00,35.3,34.3,29.91,North,5,0.0,0.0,96,0.05,,,0.25,WeatherCatV1.15B25,2013-12-22 07:18:00,
2013-12-22 02:23:00,35.2,34.2,29.91,North,5,0.0,0.0,96,0.05,,,0.25,WeatherCatV1.15B25,2013-12-22 07:23:00,
2013-12-22 02:28:00,35.2,34.2,29.91,North,0,0.0,0.0,96,0.05,,,0.25,WeatherCatV1.15B25,2013-12-22 07:28:00,
2013-12-22 02:33:00,35.3,34.3,29.91,North,0,0.0,0.0,96,0.06,,,0.26,WeatherCatV1.15B25,2013-12-22 07:33:00,
2013-12-22 02:38:00,35.3,34.3,29.91,North,5,1.0,2.0,96,0.07,,,0.27,WeatherCatV1.15B25,2013-12-22 07:38:00,
2013-12-22 02:43:00,35.4,34.4,29.91,North,5,0.0,2.0,96,0.14,,,0.28,WeatherCatV1.15B25,2013-12-22 07:43:00,
2013-12-22 02:48:00,35.5,34.5,29.90,North,5,0.0,2.0,96,0.08,,,0.28,WeatherCatV1.15B25,2013-12-22 07:48:00,
2013-12-22 02:53:00,35.5,34.5,29.89,North,0,0.0,0.0,96,0.07,,,0.29,WeatherCatV1.15B25,2013-12-22 07:53:00,
2013-12-22 02:58:00,35.4,34.4,29.90,North,5,0.0,0.0,96,0.13,,,0.30,WeatherCatV1.15B25,2013-12-22 07:58:00,
2013-12-22 03:03:00,35.4,34.4,29.90,North,0,1.0,2.0,96,0.08,,,0.31,WeatherCatV1.15B25,2013-12-22 08:03:00,
2013-12-22 03:08:00,35.3,34.3,29.90,North,0,0.0,2.0,96,0.12,,,0.32,WeatherCatV1.15B25,2013-12-22 08:08:00,
2013-12-22 03:13:00,35.2,34.2,29.90,North,0,0.0,0.0,96,0.09,,,0.32,WeatherCatV1.15B25,2013-12-22 08:13:00,
2013-12-22 03:18:00,35.1,34.1,29.90,North,5,1.0,2.0,96,0.05,,,0.33,WeatherCatV1.15B25,2013-12-22 08:18:00,
2013-12-22 03:23:00,34.9,33.9,29.90,North,5,0.0,1.0,96,0.05,,,0.33,WeatherCatV1.15B25,2013-12-22 08:23:00,
2013-12-22 03:28:00,34.8,33.8,29.91,North,0,0.0,1.0,96,0.07,,,0.34,WeatherCatV1.15B25,2013-12-22 08:28:00,
2013-12-22 03:33:00,34.7,33.7,29.91,North,5,0.0,0.0,96,0.07,,,0.34,WeatherCatV1.15B25,2013-12-22 08:33:00,
2013-12-22 03:38:00,34.5,33.5,29.91,North,0,0.0,0.0,96,0.05,,,0.35,WeatherCatV1.15B25,2013-12-22 08:38:00,
2013-12-22 03:43:00,34.4,33.4,29.91,North,0,0.0,0.0,96,0.16,,,0.36,WeatherCatV1.15B25,2013-12-22 08:43:00,
2013-12-22 03:48:00,34.4,33.4,29.91,North,5,0.0,0.0,96,0.11,,,0.37,WeatherCatV1.15B25,2013-12-22 08:48:00,
2013-12-22 03:53:00,34.4,33.4,29.91,North,5,0.0,0.0,96,0.14,,,0.38,WeatherCatV1.15B25,2013-12-22 08:53:00,
2013-12-22 03:58:00,34.4,33.4,29.91,North,5,0.0,0.0,96,0.06,,,0.38,WeatherCatV1.15B25,2013-12-22 08:58:00,
2013-12-22 04:03:00,34.3,33.3,29.90,North,0,0.0,2.0,96,0.04,,,0.38,WeatherCatV1.15B25,2013-12-22 09:03:00,
2013-12-22 04:08:00,34.2,33.2,29.90,North,5,0.0,0.0,96,0.04,,,0.39,WeatherCatV1.15B25,2013-12-22 09:08:00,
2013-12-22 04:13:00,34.2,33.2,29.90,North,5,0.0,2.0,96,0.04,,,0.39,WeatherCatV1.15B25,2013-12-22 09:13:00,
2013-12-22 04:18:00,34.2,33.2,29.90,North,0,0.0,0.0,96,0.04,,,0.39,WeatherCatV1.15B25,2013-12-22 09:18:00,
2013-12-22 04:23:00,34.1,33.1,29.90,North,5,0.0,0.0,96,0.04,,,0.40,WeatherCatV1.15B25,2013-12-22 09:23:00,
2013-12-22 04:28:00,34.0,33.0,29.90,North,0,0.0,0.0,96,0.04,,,0.40,WeatherCatV1.15B25,2013-12-22 09:28:00,
2013-12-22 04:33:00,33.9,32.9,29.90,North,5,0.0,1.0,96,0.04,,,0.40,WeatherCatV1.15B25,2013-12-22 09:33:00,
2013-12-22 04:38:00,33.8,32.8,29.90,North,5,0.0,0.0,96,0.05,,,0.41,WeatherCatV1.15B25,2013-12-22 09:38:00,
2013-12-22 04:43:00,33.7,32.7,29.90,North,5,0.0,1.0,96,0.11,,,0.42,WeatherCatV1.15B25,2013-12-22 09:43:00,
2013-12-22 04:48:00,33.7,32.7,29.89,North,0,0.0,0.0,96,0.07,,,0.42,WeatherCatV1.15B25,2013-12-22 09:48:00,
2013-12-22 04:53:00,33.6,32.6,29.88,North,0,0.0,0.0,96,0.05,,,0.43,WeatherCatV1.15B25,2013-12-22 09:53:00,
2013-12-22 04:58:00,33.6,32.6,29.89,North,5,0.0,2.0,96,0.16,,,0.44,WeatherCatV1.15B25,2013-12-22 09:58:00,
2013-12-22 05:03:00,33.6,32.6,29.89,North,0,0.0,2.0,96,0.08,,,0.44,WeatherCatV1.15B25,2013-12-22 10:03:00,
2013-12-22 05:08:00,33.6,32.6,29.88,North,5,0.0,0.0,96,0.23,,,0.45,WeatherCatV1.15B25,2013-12-22 10:08:00,
2013-12-22 05:13:00,33.5,32.5,29.88,North,5,0.0,0.0,96,0.12,,,0.46,WeatherCatV1.15B25,2013-12-22 10:13:00,
2013-12-22 05:18:00,33.5,32.5,29.89,North,5,0.0,1.0,96,0.06,,,0.46,WeatherCatV1.15B25,2013-12-22 10:18:00,
2013-12-22 05:23:00,33.4,32.4,29.89,North,5,0.0,0.0,96,0.04,,,0.46,WeatherCatV1.15B25,2013-12-22 10:23:00,
2013-12-22 05:28:00,33.4,32.4,29.90,SSE,166,0.0,0.0,96,0.04,,,0.47,WeatherCatV1.15B25,2013-12-22 10:28:00,
2013-12-22 05:33:00,33.3,32.3,29.89,SSE,161,0.0,0.0,96,0.04,,,0.47,WeatherCatV1.15B25,2013-12-22 10:33:00,
2013-12-22 05:38:00,33.1,32.1,29.89,SE,141,0.0,1.0,96,0.05,,,0.48,WeatherCatV1.15B25,2013-12-22 10:38:00,
2013-12-22 05:43:00,33.0,32.0,29.89,South,177,0.0,3.0,96,0.05,,,0.48,WeatherCatV1.15B25,2013-12-22 10:43:00,
2013-12-22 05:48:00,32.8,31.8,29.89,South,174,0.0,3.0,96,0.04,,,0.48,WeatherCatV1.15B25,2013-12-22 10:48:00,
2013-12-22 05:53:00,32.6,31.6,29.89,WSW,253,0.0,4.0,96,0.00,,,0.48,WeatherCatV1.15B25,2013-12-22 10:53:00,
2013-12-22 05:58:00,32.5,31.5,29.89,SW,214,1.0,3.0,96,0.00,,,0.48,WeatherCatV1.15B25,2013-12-22 10:58:00,
2013-12-22 06:03:00,32.3,31.3,29.89,ESE,109,0.0,3.0,96,0.00,,,0.48,WeatherCatV1.15B25,2013-12-22 11:03:00,
2013-12-22 06:08:00,32.2,31.2,29.89,East,92,0.0,2.0,96,0.00,,,0.48,WeatherCatV1.15B25,2013-12-22 11:08:00,
2013-12-22 06:13:00,32.1,31.1,29.88,SE,125,0.0,3.0,96,0.00,,,0.48,WeatherCatV1.15B25,2013-12-22 11:13:00,
2013-12-22 06:18:00,32.0,31.0,29.89,NNW,327,1.0,4.0,96,0.00,,,0.48,WeatherCatV1.15B25,2013-12-22 11:18:00,
2013-12-22 06:23:00,31.9,30.9,29.90,ENE,61,1.0,3.0,96,0.00,,,0.48,WeatherCatV1.15B25,2013-12-22 11:23:00,
2013-12-22 06:28:00,31.8,30.8,29.91,East,79,2.0,2.0,96,0.00,,,0.49,WeatherCatV1.15B25,2013-12-22 11:28:00,
2013-12-22 06:33:00,31.7,30.7,29.90,ESE,122,2.0,2.0,96,0.00,,,0.49,WeatherCatV1.15B25,2013-12-22 11:33:00,
2013-12-22 06:38:00,31.6,30.6,29.90,SSE,161,0.0,1.0,96,0.00,,,0.49,WeatherCatV1.15B25,2013-12-22 11:38:00,
2013-12-22 06:43:00,31.5,30.5,29.88,SSE,160,0.0,2.0,96,0.00,,,0.49,WeatherCatV1.15B25,2013-12-22 11:43:00,
2013-12-22 06:48:00,31.5,30.5,29.86,SSE,168,0.0,2.0,96,0.00,,,0.49,WeatherCatV1.15B25,2013-12-22 11:48:00,
2013-12-22 06:53:00,31.4,30.4,29.88,SSE,167,0.0,2.0,96,0.00,,,0.49,WeatherCatV1.15B25,2013-12-22 11:53:00,
2013-12-22 06:58:00,31.4,30.4,29.88,SSE,167,0.0,0.0,96,0.00,,,0.49,WeatherCatV1.15B25,2013-12-22 11:58:00,
2013-12-22 07:03:00,31.5,30.5,29.89,SSE,167,1.0,1.0,96,0.00,,,0.49,WeatherCatV1.15B25,2013-12-22 12:03:00,
2013-12-22 07:08:00,31.6,30.6,29.88,SE,129,1.0,1.0,96,0.00,,,0.50,WeatherCatV1.15B25,2013-12-22 12:08:00,
2013-12-22 07:13:00,31.7,30.7,29.87,SE,130,0.0,2.0,96,0.18,,,0.51,WeatherCatV1.15B25,2013-12-22 12:13:00,
2013-12-22 07:18:00,31.7,30.7,29.88,SE,130,0.0,1.0,96,0.11,,,0.52,WeatherCatV1.15B25,2013-12-22 12:18:00,
2013-12-22 07:23:00,31.7,30.7,29.87,SSW,199,1.0,3.0,96,0.08,,,0.52,WeatherCatV1.15B25,2013-12-22 12:23:00,
2013-12-22 07:28:00,31.7,30.7,29.87,West,267,0.0,2.0,96,0.05,,,0.52,WeatherCatV1.15B25,2013-12-22 12:28:00,
2013-12-22 07:33:00,31.7,30.7,29.87,West,267,0.0,0.0,96,0.04,,,0.53,WeatherCatV1.15B25,2013-12-22 12:33:00,
2013-12-22 07:38:00,31.8,30.8,29.88,SE,140,0.0,2.0,96,0.04,,,0.53,WeatherCatV1.15B25,2013-12-22 12:38:00,
2013-12-22 07:43:00,31.8,30.8,29.90,SE,132,0.0,2.0,96,0.05,,,0.54,WeatherCatV1.15B25,2013-12-22 12:43:00,
2013-12-22 07:48:00,31.8,30.8,29.90,SE,132,0.0,1.0,96,0.05,,,0.54,WeatherCatV1.15B25,2013-12-22 12:48:00,
2013-12-22 07:53:00,31.8,30.8,29.88,SE,132,0.0,2.0,96,0.05,,,0.54,WeatherCatV1.15B25,2013-12-22 12:53:00,
2013-12-22 07:58:00,31.8,30.8,29.88,SE,132,0.0,0.0,96,0.04,,,0.54,WeatherCatV1.15B25,2013-12-22 12:58:00,
2013-12-22 08:03:00,31.7,30.7,29.88,SSE,159,0.0,2.0,96,0.00,,,0.54,WeatherCatV1.15B25,2013-12-22 13:03:00,
2013-12-22 08:08:00,31.7,30.7,29.87,SSE,159,0.0,0.0,96,0.15,,,0.56,WeatherCatV1.15B25,2013-12-22 13:08:00,
2013-12-22 08:13:00,31.7,30.7,29.87,ESE,109,0.0,0.0,96,0.11,,,0.56,WeatherCatV1.15B25,2013-12-22 13:13:00,
2013-12-22 08:18:00,31.7,30.7,29.87,ESE,109,0.0,0.0,96,0.06,,,0.56,WeatherCatV1.15B25,2013-12-22 13:18:00,
2013-12-22 08:23:00,31.7,30.7,29.87,East,88,0.0,0.0,96,0.04,,,0.56,WeatherCatV1.15B25,2013-12-22 13:23:00,
2013-12-22 08:28:00,31.7,30.7,29.88,East,88,0.0,0.0,96,0.00,,,0.56,WeatherCatV1.15B25,2013-12-22 13:28:00,
2013-12-22 08:33:00,31.6,30.6,29.88,East,88,0.0,0.0,96,0.00,,,0.57,WeatherCatV1.15B25,2013-12-22 13:33:00,
2013-12-22 08:38:00,31.5,30.5,29.87,East,90,0.0,0.0,96,0.00,,,0.57,WeatherCatV1.15B25,2013-12-22 13:38:00,
2013-12-22 08:43:00,31.5,30.5,29.88,East,90,1.0,1.0,96,0.00,,,0.57,WeatherCatV1.15B25,2013-12-22 13:43:00,
2013-12-22 08:48:00,31.5,30.5,29.88,East,90,0.0,0.0,96,0.04,,,0.58,WeatherCatV1.15B25,2013-12-22 13:48:00,
2013-12-22 08:53:00,31.5,30.5,29.88,East,90,0.0,0.0,96,0.04,,,0.58,WeatherCatV1.15B25,2013-12-22 13:53:00,
2013-12-22 08:58:00,31.4,30.4,29.88,East,90,0.0,0.0,96,0.04,,,0.58,WeatherCatV1.15B25,2013-12-22 13:58:00,
2013-12-22 09:03:00,31.4,30.4,29.88,East,90,0.0,0.0,96,0.04,,,0.58,WeatherCatV1.15B25,2013-12-22 14:03:00,
2013-12-22 09:08:00,31.5,30.5,29.89,East,90,0.0,0.0,96,0.04,,,0.59,WeatherCatV1.15B25,2013-12-22 14:08:00,
2013-12-22 09:13:00,31.6,30.6,29.88,East,90,0.0,0.0,96,0.04,,,0.59,WeatherCatV1.15B25,2013-12-22 14:13:00,
2013-12-22 09:18:00,31.6,30.6,29.89,East,90,0.0,0.0,96,0.04,,,0.59,WeatherCatV1.15B25,2013-12-22 14:18:00,
2013-12-22 09:23:00,31.6,30.6,29.88,East,90,0.0,0.0,96,0.04,,,0.60,WeatherCatV1.15B25,2013-12-22 14:23:00,
2013-12-22 09:28:00,31.5,30.5,29.88,East,90,0.0,0.0,96,0.04,,,0.60,WeatherCatV1.15B25,2013-12-22 14:28:00,
2013-12-22 09:33:00,31.4,30.4,29.89,East,90,0.0,0.0,96,0.04,,,0.60,WeatherCatV1.15B25,2013-12-22 14:33:00,
2013-12-22 09:38:00,31.4,30.4,29.88,East,90,0.0,0.0,96,0.00,,,0.60,WeatherCatV1.15B25,2013-12-22 14:38:00,
2013-12-22 09:43:00,31.3,30.3,29.89,East,90,0.0,0.0,96,0.00,,,0.60,WeatherCatV1.15B25,2013-12-22 14:43:00,
2013-12-22 09:48:00,31.4,30.4,29.89,East,90,0.0,0.0,96,0.00,,,0.60,WeatherCatV1.15B25,2013-12-22 14:48:00,
2013-12-22 09:53:00,31.4,30.4,29.90,East,90,0.0,0.0,96,0.00,,,0.60,WeatherCatV1.15B25,2013-12-22 14:53:00,
2013-12-22 09:58:00,31.3,30.3,29.91,East,90,0.0,0.0,96,0.00,,,0.60,WeatherCatV1.15B25,2013-12-22 14:58:00,
2013-12-22 10:03:00,31.4,30.4,29.91,East,90,0.0,0.0,96,0.00,,,0.61,WeatherCatV1.15B25,2013-12-22 15:03:00,
2013-12-22 10:08:00,31.4,30.4,29.91,East,90,0.0,0.0,96,0.00,,,0.61,WeatherCatV1.15B25,2013-12-22 15:08:00,
2013-12-22 10:13:00,31.4,30.4,29.91,East,90,0.0,0.0,96,0.00,,,0.61,WeatherCatV1.15B25,2013-12-22 15:13:00,
2013-12-22 10:18:00,31.4,30.4,29.91,East,90,0.0,0.0,96,0.00,,,0.61,WeatherCatV1.15B25,2013-12-22 15:18:00,
2013-12-22 10:23:00,31.4,30.4,29.91,East,90,0.0,0.0,96,0.00,,,0.61,WeatherCatV1.15B25,2013-12-22 15:23:00,
2013-12-22 10:28:00,31.4,30.4,29.90,East,90,0.0,0.0,96,0.00,,,0.61,WeatherCatV1.15B25,2013-12-22 15:28:00,
2013-12-22 10:33:00,31.4,30.4,29.90,East,90,0.0,0.0,96,0.00,,,0.62,WeatherCatV1.15B25,2013-12-22 15:33:00,
2013-12-22 10:38:00,31.4,30.4,29.90,East,90,0.0,0.0,96,0.00,,,0.62,WeatherCatV1.15B25,2013-12-22 15:38:00,
2013-12-22 10:43:00,31.4,30.4,29.90,East,90,0.0,0.0,96,0.00,,,0.62,WeatherCatV1.15B25,2013-12-22 15:43:00,
2013-12-22 10:48:00,31.4,30.4,29.90,East,90,0.0,0.0,96,0.00,,,0.62,WeatherCatV1.15B25,2013-12-22 15:48:00,
2013-12-22 10:53:00,31.2,30.2,29.90,East,90,0.0,0.0,96,0.00,,,0.62,WeatherCatV1.15B25,2013-12-22 15:53:00,
2013-12-22 10:58:00,31.2,30.2,29.90,East,90,0.0,0.0,96,0.00,,,0.62,WeatherCatV1.15B25,2013-12-22 15:58:00,
2013-12-22 11:03:00,31.1,30.1,29.90,East,90,0.0,0.0,96,0.00,,,0.62,WeatherCatV1.15B25,2013-12-22 16:03:00,
2013-12-22 11:08:00,31.0,30.0,29.89,East,90,0.0,0.0,96,0.00,,,0.62,WeatherCatV1.15B25,2013-12-22 16:08:00,
2013-12-22 11:13:00,31.0,30.0,29.89,East,90,0.0,0.0,96,0.00,,,0.62,WeatherCatV1.15B25,2013-12-22 16:13:00,
2013-12-22 11:18:00,31.0,30.0,29.89,East,90,0.0,0.0,96,0.00,,,0.63,WeatherCatV1.15B25,2013-12-22 16:18:00,
2013-12-22 11:23:00,31.0,30.0,29.89,East,90,0.0,0.0,96,0.00,,,0.63,WeatherCatV1.15B25,2013-12-22 16:23:00,
2013-12-22 11:28:00,31.0,30.0,29.88,East,90,0.0,0.0,96,0.05,,,0.64,WeatherCatV1.15B25,2013-12-22 16:28:00,
2013-12-22 11:33:00,31.0,30.0,29.88,East,90,0.0,0.0,96,0.05,,,0.64,WeatherCatV1.15B25,2013-12-22 16:33:00,
2013-12-22 11:38:00,31.0,30.0,29.89,East,90,0.0,0.0,96,0.05,,,0.64,WeatherCatV1.15B25,2013-12-22 16:38:00,
2013-12-22 11:43:00,31.0,30.0,29.88,East,90,0.0,0.0,96,0.00,,,0.64,WeatherCatV1.15B25,2013-12-22 16:43:00,
2013-12-22 11:48:00,31.1,30.1,29.88,East,90,0.0,0.0,96,0.00,,,0.64,WeatherCatV1.15B25,2013-12-22 16:48:00,
2013-12-22 11:53:00,31.0,30.0,29.88,East,90,0.0,0.0,96,0.00,,,0.64,WeatherCatV1.15B25,2013-12-22 16:53:00,
2013-12-22 11:58:00,31.0,30.0,29.87,East,90,0.0,0.0,96,0.00,,,0.64,WeatherCatV1.15B25,2013-12-22 16:58:00,
2013-12-22 12:03:00,31.0,30.0,29.88,East,90,0.0,0.0,96,0.00,,,0.64,WeatherCatV1.15B25,2013-12-22 17:03:00,
2013-12-22 12:08:00,30.9,29.9,29.87,East,90,0.0,0.0,96,0.00,,,0.64,WeatherCatV1.15B25,2013-12-22 17:08:00,
2013-12-22 12:13:00,30.9,29.9,29.87,East,90,0.0,0.0,96,0.00,,,0.64,WeatherCatV1.15B25,2013-12-22 17:13:00,
2013-12-22 12:18:00,30.9,29.9,29.85,East,90,0.0,0.0,96,0.00,,,0.64,WeatherCatV1.15B25,2013-12-22 17:18:00,
2013-12-22 12:23:00,30.9,29.9,29.85,East,90,0.0,0.0,96,0.00,,,0.64,WeatherCatV1.15B25,2013-12-22 17:23:00,
2013-12-22 12:28:00,30.9,29.9,29.86,East,90,0.0,0.0,96,0.00,,,0.64,WeatherCatV1.15B25,2013-12-22 17:28:00,
2013-12-22 12:33:00,31.0,30.0,29.86,East,90,0.0,0.0,96,0.00,,,0.64,WeatherCatV1.15B25,2013-12-22 17:33:00,
2013-12-22 12:38:00,30.9,29.9,29.85,East,90,0.0,0.0,96,0.00,,,0.64,WeatherCatV1.15B25,2013-12-22 17:38:00,
2013-12-22 12:43:00,31.0,30.0,29.86,East,90,0.0,0.0,96,0.00,,,0.64,WeatherCatV1.15B25,2013-12-22 17:43:00,
2013-12-22 12:48:00,30.9,29.9,29.85,East,90,0.0,0.0,96,0.00,,,0.64,WeatherCatV1.15B25,2013-12-22 17:48:00,
2013-12-22 12:53:00,30.9,29.9,29.86,East,90,0.0,0.0,96,0.00,,,0.64,WeatherCatV1.15B25,2013-12-22 17:53:00,
2013-12-22 12:58:00,30.8,29.8,29.86,East,90,0.0,0.0,96,0.00,,,0.64,WeatherCatV1.15B25,2013-12-22 17:58:00,
2013-12-22 13:03:00,30.8,29.8,29.85,East,90,0.0,0.0,96,0.00,,,0.64,WeatherCatV1.15B25,2013-12-22 18:03:00,
2013-12-22 13:08:00,30.8,29.8,29.85,East,90,0.0,0.0,96,0.00,,,0.64,WeatherCatV1.15B25,2013-12-22 18:08:00,
2013-12-22 13:13:00,30.8,29.8,29.86,East,90,0.0,0.0,96,0.00,,,0.64,WeatherCatV1.15B25,2013-12-22 18:13:00,
2013-12-22 13:18:00,30.8,29.8,29.84,East,90,0.0,0.0,96,0.00,,,0.64,WeatherCatV1.15B25,2013-12-22 18:18:00,
2013-12-22 13:23:00,30.7,29.7,29.83,East,90,0.0,0.0,96,0.00,,,0.64,WeatherCatV1.15B25,2013-12-22 18:23:00,
2013-12-22 13:28:00,30.6,29.3,29.82,East,90,0.0,0.0,95,0.00,,,0.64,WeatherCatV1.15B25,2013-12-22 18:28:00,
2013-12-22 13:33:00,30.5,29.2,29.83,East,90,0.0,0.0,95,0.00,,,0.64,WeatherCatV1.15B25,2013-12-22 18:33:00,
2013-12-22 13:38:00,30.5,29.2,29.81,East,90,0.0,0.0,95,0.00,,,0.64,WeatherCatV1.15B25,2013-12-22 18:38:00,
2013-12-22 13:43:00,30.5,29.2,29.82,East,90,0.0,0.0,95,0.00,,,0.64,WeatherCatV1.15B25,2013-12-22 18:43:00,
2013-12-22 13:48:00,30.5,29.2,29.84,East,90,0.0,0.0,95,0.00,,,0.64,WeatherCatV1.15B25,2013-12-22 18:48:00,
2013-12-22 13:53:00,30.5,29.2,29.83,East,90,0.0,0.0,95,0.00,,,0.64,WeatherCatV1.15B25,2013-12-22 18:53:00,
2013-12-22 13:58:00,30.5,29.2,29.86,East,90,0.0,0.0,95,0.00,,,0.64,WeatherCatV1.15B25,2013-12-22 18:58:00,
2013-12-22 14:03:00,30.5,29.2,29.84,East,90,0.0,0.0,95,0.00,,,0.64,WeatherCatV1.15B25,2013-12-22 19:03:00,
2013-12-22 14:08:00,30.5,29.2,29.88,East,90,0.0,0.0,95,0.00,,,0.64,WeatherCatV1.15B25,2013-12-22 19:08:00,
2013-12-22 14:13:00,30.4,29.1,29.87,East,90,0.0,0.0,95,0.00,,,0.64,WeatherCatV1.15B25,2013-12-22 19:13:00,
2013-12-22 14:18:00,30.4,29.1,29.89,East,90,0.0,0.0,95,0.00,,,0.64,WeatherCatV1.15B25,2013-12-22 19:18:00,
2013-12-22 14:23:00,30.4,29.1,29.90,East,90,0.0,0.0,95,0.00,,,0.64,WeatherCatV1.15B25,2013-12-22 19:23:00,
2013-12-22 14:28:00,30.4,29.4,29.88,East,90,0.0,0.0,96,0.00,,,0.64,WeatherCatV1.15B25,2013-12-22 19:28:00,
2013-12-22 14:34:00,30.4,29.1,29.87,East,90,0.0,0.0,95,0.00,,,0.64,WeatherCatV1.15B25,2013-12-22 19:34:00,
2013-12-22 14:39:00,30.3,29.3,29.86,East,90,0.0,0.0,96,0.00,,,0.64,WeatherCatV1.15B25,2013-12-22 19:39:00,
2013-12-22 14:44:00,30.3,29.0,29.87,East,91,0.0,0.0,95,0.00,,,0.64,WeatherCatV1.15B25,2013-12-22 19:44:00,
2013-12-22 14:49:00,30.3,29.3,29.89,East,90,0.0,0.0,96,0.00,,,0.64,WeatherCatV1.15B25,2013-12-22 19:49:00,
2013-12-22 14:54:00,30.3,29.3,29.87,East,90,0.0,0.0,96,0.00,,,0.64,WeatherCatV1.15B25,2013-12-22 19:54:00,
2013-12-22 14:59:00,30.4,29.1,29.88,East,90,0.0,0.0,95,0.00,,,0.64,WeatherCatV1.15B25,2013-12-22 19:59:00,
2013-12-22 15:04:00,30.3,29.3,29.90,East,90,0.0,0.0,96,0.00,,,0.64,WeatherCatV1.15B25,2013-12-22 20:04:00,
2013-12-22 15:09:00,30.3,29.3,29.89,East,90,0.0,0.0,96,0.00,,,0.64,WeatherCatV1.15B25,2013-12-22 20:09:00,
2013-12-22 15:14:00,30.3,29.3,29.89,East,90,0.0,0.0,96,0.00,,,0.64,WeatherCatV1.15B25,2013-12-22 20:14:00,
2013-12-22 15:19:00,30.3,29.3,29.91,East,90,0.0,0.0,96,0.00,,,0.64,WeatherCatV1.15B25,2013-12-22 20:19:00,
2013-12-22 15:24:00,30.3,29.0,29.91,East,90,0.0,0.0,95,0.00,,,0.64,WeatherCatV1.15B25,2013-12-22 20:24:00,
2013-12-22 15:29:00,30.2,28.9,29.92,East,90,0.0,0.0,95,0.00,,,0.64,WeatherCatV1.15B25,2013-12-22 20:29:00,
2013-12-22 15:34:00,30.3,29.3,29.92,East,90,0.0,0.0,96,0.00,,,0.64,WeatherCatV1.15B25,2013-12-22 20:34:00,
2013-12-22 15:39:00,30.4,29.1,29.91,East,90,0.0,0.0,95,0.00,,,0.64,WeatherCatV1.15B25,2013-12-22 20:39:00,
2013-12-22 15:44:00,30.4,29.1,29.92,East,90,0.0,0.0,95,0.00,,,0.64,WeatherCatV1.15B25,2013-12-22 20:44:00,
2013-12-22 15:49:00,30.3,29.3,29.92,East,90,0.0,0.0,96,0.00,,,0.64,WeatherCatV1.15B25,2013-12-22 20:49:00,
2013-12-22 15:54:00,30.2,29.2,29.92,East,90,0.0,0.0,96,0.00,,,0.64,WeatherCatV1.15B25,2013-12-22 20:54:00,
2013-12-22 15:59:00,30.1,29.1,29.92,East,90,0.0,0.0,96,0.00,,,0.64,WeatherCatV1.15B25,2013-12-22 20:59:00,
2013-12-22 16:04:00,30.1,29.1,29.92,South,178,0.0,0.0,96,0.00,,,0.64,WeatherCatV1.15B25,2013-12-22 21:04:00,
2013-12-22 16:09:00,30.1,29.1,29.92,South,178,0.0,0.0,96,0.00,,,0.64,WeatherCatV1.15B25,2013-12-22 21:09:00,
2013-12-22 16:14:00,30.2,29.2,29.92,South,178,0.0,0.0,96,0.00,,,0.64,WeatherCatV1.15B25,2013-12-22 21:14:00,
2013-12-22 16:19:00,30.2,29.2,29.92,South,178,0.0,0.0,96,0.00,,,0.64,WeatherCatV1.15B25,2013-12-22 21:19:00,
2013-12-22 16:24:00,30.1,29.1,29.92,South,178,0.0,0.0,96,0.00,,,0.64,WeatherCatV1.15B25,2013-12-22 21:24:00,
2013-12-22 16:29:00,30.1,29.1,29.92,South,178,0.0,0.0,96,0.00,,,0.64,WeatherCatV1.15B25,2013-12-22 21:29:00,
2013-12-22 16:32:00,30.1,29.1,29.91,South,178,0.0,0.0,96,0.00,,,0.64,WeatherCatV1.15B25,2013-12-22 21:32:00,
2013-12-22 16:37:00,30.0,29.0,29.91,South,178,0.0,0.0,96,0.00,,,0.64,WeatherCatV1.15B25,2013-12-22 21:37:00,
2013-12-22 16:42:00,30.1,29.1,29.92,South,178,0.0,0.0,96,0.00,,,0.64,WeatherCatV1.15B25,2013-12-22 21:42:00,
2013-12-22 16:47:00,30.1,29.1,29.92,ESE,105,0.0,0.0,96,0.00,,,0.64,WeatherCatV1.15B25,2013-12-22 21:47:00,
2013-12-22 16:52:00,30.1,29.1,29.93,ESE,105,0.0,0.0,96,0.00,,,0.64,WeatherCatV1.15B25,2013-12-22 21:52:00,
2013-12-22 16:57:00,30.0,28.7,29.94,ESE,105,0.0,0.0,95,0.00,,,0.64,WeatherCatV1.15B25,2013-12-22 21:57:00,
2013-12-22 17:02:00,30.0,28.7,29.95,ESE,105,0.0,0.0,95,0.00,,,0.64,WeatherCatV1.15B25,2013-12-22 22:02:00,
2013-12-22 17:07:00,29.9,28.6,29.95,ESE,105,0.0,0.0,95,0.00,,,0.64,WeatherCatV1.15B25,2013-12-22 22:07:00,
2013-12-22 17:12:00,29.9,28.6,29.94,ESE,105,0.0,0.0,95,0.00,,,0.64,WeatherCatV1.15B25,2013-12-22 22:12:00,
2013-12-22 17:17:00,29.8,28.5,29.95,ESE,105,0.0,0.0,95,0.00,,,0.64,WeatherCatV1.15B25,2013-12-22 22:17:00,
2013-12-22 17:22:00,29.7,28.4,29.94,ESE,105,0.0,0.0,95,0.00,,,0.64,WeatherCatV1.15B25,2013-12-22 22:22:00,
2013-12-22 17:27:00,29.7,28.4,29.95,ESE,105,0.0,0.0,95,0.00,,,0.64,WeatherCatV1.15B25,2013-12-22 22:27:00,
2013-12-22 17:32:00,29.7,28.4,29.95,ESE,105,0.0,0.0,95,0.00,,,0.64,WeatherCatV1.15B25,2013-12-22 22:32:00,
2013-12-22 17:37:00,29.6,28.3,29.95,ESE,105,0.0,0.0,95,0.00,,,0.64,WeatherCatV1.15B25,2013-12-22 22:37:00,
2013-12-22 17:42:00,29.6,28.3,29.95,ESE,105,0.0,0.0,95,0.00,,,0.64,WeatherCatV1.15B25,2013-12-22 22:42:00,
2013-12-22 17:47:00,29.6,28.3,29.95,ESE,105,0.0,0.0,95,0.00,,,0.64,WeatherCatV1.15B25,2013-12-22 22:47:00,
2013-12-22 17:52:00,29.5,28.2,29.95,ESE,105,0.0,0.0,95,0.00,,,0.64,WeatherCatV1.15B25,2013-12-22 22:52:00,
2013-12-22 17:57:00,29.5,28.2,29.96,ESE,105,0.0,0.0,95,0.00,,,0.64,WeatherCatV1.15B25,2013-12-22 22:57:00,
2013-12-22 18:02:00,29.4,28.1,29.96,ESE,105,0.0,0.0,95,0.00,,,0.64,WeatherCatV1.15B25,2013-12-22 23:02:00,
2013-12-22 18:07:00,29.4,28.1,29.95,ESE,105,0.0,0.0,95,0.00,,,0.64,WeatherCatV1.15B25,2013-12-22 23:07:00,
2013-12-22 18:12:00,29.2,28.0,29.96,ESE,105,0.0,0.0,95,0.00,,,0.64,WeatherCatV1.15B25,2013-12-22 23:12:00,
2013-12-22 18:17:00,29.2,28.0,29.97,ESE,105,0.0,0.0,95,0.00,,,0.64,WeatherCatV1.15B25,2013-12-22 23:17:00,
2013-12-22 18:22:00,29.2,28.0,29.97,ESE,105,0.0,0.0,95,0.00,,,0.64,WeatherCatV1.15B25,2013-12-22 23:22:00,
2013-12-22 18:27:00,29.2,28.0,29.97,ESE,105,0.0,0.0,95,0.00,,,0.64,WeatherCatV1.15B25,2013-12-22 23:27:00,
2013-12-22 18:32:00,29.2,28.0,29.97,ESE,105,0.0,0.0,95,0.00,,,0.64,WeatherCatV1.15B25,2013-12-22 23:32:00,
2013-12-22 18:37:00,29.0,27.8,29.96,ESE,105,0.0,0.0,95,0.00,,,0.64,WeatherCatV1.15B25,2013-12-22 23:37:00,
2013-12-22 18:42:00,28.9,27.7,29.97,ESE,105,0.0,0.0,95,0.00,,,0.64,WeatherCatV1.15B25,2013-12-22 23:42:00,
2013-12-22 18:47:00,28.9,27.7,29.96,ESE,105,0.0,0.0,95,0.00,,,0.64,WeatherCatV1.15B25,2013-12-22 23:47:00,
2013-12-22 18:52:00,28.9,27.7,29.96,ESE,105,0.0,0.0,95,0.00,,,0.64,WeatherCatV1.15B25,2013-12-22 23:52:00,
2013-12-22 18:57:00,28.9,27.7,29.97,ESE,105,0.0,0.0,95,0.00,,,0.64,WeatherCatV1.15B25,2013-12-22 23:57:00,
2013-12-22 19:02:00,28.9,27.7,29.97,ESE,105,0.0,0.0,95,0.00,,,0.64,WeatherCatV1.15B25,2013-12-23 00:02:00,
2013-12-22 19:07:00,28.9,27.7,29.97,ESE,105,0.0,0.0,95,0.00,,,0.64,WeatherCatV1.15B25,2013-12-23 00:07:00,
2013-12-22 19:12:00,28.9,27.7,29.97,ESE,105,0.0,0.0,95,0.00,,,0.64,WeatherCatV1.15B25,2013-12-23 00:12:00,
2013-12-22 19:17:00,28.8,27.6,29.97,ESE,105,0.0,0.0,95,0.00,,,0.64,WeatherCatV1.15B25,2013-12-23 00:17:00,
2013-12-22 19:22:00,28.8,27.6,29.97,ESE,105,0.0,0.0,95,0.00,,,0.64,WeatherCatV1.15B25,2013-12-23 00:22:00,
2013-12-22 19:27:00,28.8,27.6,29.97,ESE,105,0.0,0.0,95,0.00,,,0.64,WeatherCatV1.15B25,2013-12-23 00:27:00,
2013-12-22 19:32:00,28.8,27.6,29.97,ESE,105,0.0,0.0,95,0.00,,,0.64,WeatherCatV1.15B25,2013-12-23 00:32:00,
2013-12-22 19:37:00,28.8,27.6,29.97,ESE,105,0.0,0.0,95,0.00,,,0.64,WeatherCatV1.15B25,2013-12-23 00:37:00,
2013-12-22 19:42:00,28.7,27.5,29.97,ESE,105,0.0,0.0,95,0.00,,,0.64,WeatherCatV1.15B25,2013-12-23 00:42:00,
2013-12-22 19:47:00,28.7,27.5,29.98,ESE,105,0.0,0.0,95,0.00,,,0.64,WeatherCatV1.15B25,2013-12-23 00:47:00,
2013-12-22 19:52:00,28.7,27.5,29.98,ESE,105,0.0,0.0,95,0.00,,,0.64,WeatherCatV1.15B25,2013-12-23 00:52:00,
2013-12-22 19:57:00,28.7,27.5,29.98,ESE,105,0.0,0.0,95,0.00,,,0.64,WeatherCatV1.15B25,2013-12-23 00:57:00,
2013-12-22 20:02:00,28.7,27.5,29.98,ESE,105,0.0,0.0,95,0.00,,,0.64,WeatherCatV1.15B25,2013-12-23 01:02:00,
2013-12-22 20:07:00,28.7,27.5,29.98,ESE,105,0.0,0.0,95,0.00,,,0.64,WeatherCatV1.15B25,2013-12-23 01:07:00,
2013-12-22 20:12:00,28.6,27.4,29.98,ESE,105,0.0,0.0,95,0.00,,,0.64,WeatherCatV1.15B25,2013-12-23 01:12:00,
2013-12-22 20:17:00,28.5,27.3,29.98,ESE,105,0.0,0.0,95,0.00,,,0.64,WeatherCatV1.15B25,2013-12-23 01:17:00,
2013-12-22 20:22:00,28.5,27.3,29.98,ESE,105,0.0,0.0,95,0.00,,,0.64,WeatherCatV1.15B25,2013-12-23 01:22:00,
2013-12-22 20:27:00,28.4,27.2,29.98,ESE,105,0.0,0.0,95,0.00,,,0.64,WeatherCatV1.15B25,2013-12-23 01:27:00,
2013-12-22 20:32:00,28.4,27.2,29.99,ESE,105,0.0,0.0,95,0.00,,,0.64,WeatherCatV1.15B25,2013-12-23 01:32:00,
2013-12-22 20:37:00,28.3,27.1,29.99,ESE,105,0.0,0.0,95,0.00,,,0.64,WeatherCatV1.15B25,2013-12-23 01:37:00,
2013-12-22 20:42:00,28.2,27.0,29.98,ESE,105,0.0,0.0,95,0.00,,,0.64,WeatherCatV1.15B25,2013-12-23 01:42:00,
2013-12-22 20:47:00,28.1,26.9,29.98,ESE,105,0.0,0.0,95,0.00,,,0.64,WeatherCatV1.15B25,2013-12-23 01:47:00,
2013-12-22 20:52:00,28.0,26.8,29.98,ESE,105,0.0,0.0,95,0.00,,,0.64,WeatherCatV1.15B25,2013-12-23 01:52:00,
2013-12-22 20:57:00,28.0,26.8,29.99,ESE,105,0.0,0.0,95,0.00,,,0.64,WeatherCatV1.15B25,2013-12-23 01:57:00,
2013-12-22 21:02:00,27.9,26.7,30.00,ESE,105,0.0,0.0,95,0.00,,,0.64,WeatherCatV1.15B25,2013-12-23 02:02:00,
2013-12-22 21:07:00,27.9,26.7,30.00,ESE,105,0.0,0.0,95,0.00,,,0.64,WeatherCatV1.15B25,2013-12-23 02:07:00,
2013-12-22 21:12:00,27.8,26.6,30.00,ESE,105,0.0,0.0,95,0.00,,,0.64,WeatherCatV1.15B25,2013-12-23 02:12:00,
2013-12-22 21:17:00,27.7,26.5,30.01,ESE,105,0.0,0.0,95,0.00,,,0.64,WeatherCatV1.15B25,2013-12-23 02:17:00,
2013-12-22 21:22:00,27.7,26.5,30.00,ESE,105,0.0,0.0,95,0.00,,,0.64,WeatherCatV1.15B25,2013-12-23 02:22:00,
2013-12-22 21:27:00,27.8,26.6,30.00,ESE,105,0.0,0.0,95,0.00,,,0.64,WeatherCatV1.15B25,2013-12-23 02:27:00,
2013-12-22 21:32:00,27.7,26.5,30.01,ESE,105,0.0,0.0,95,0.00,,,0.64,WeatherCatV1.15B25,2013-12-23 02:32:00,
2013-12-22 21:37:00,27.8,26.6,30.02,ESE,105,0.0,0.0,95,0.00,,,0.64,WeatherCatV1.15B25,2013-12-23 02:37:00,
2013-12-22 21:42:00,27.8,26.6,30.02,ESE,105,0.0,0.0,95,0.00,,,0.64,WeatherCatV1.15B25,2013-12-23 02:42:00,
2013-12-22 21:47:00,27.8,26.6,30.02,ESE,105,0.0,0.0,95,0.00,,,0.64,WeatherCatV1.15B25,2013-12-23 02:47:00,
2013-12-22 21:52:00,27.7,26.5,30.03,ESE,105,0.0,0.0,95,0.00,,,0.64,WeatherCatV1.15B25,2013-12-23 02:52:00,
2013-12-22 21:57:00,27.7,26.5,30.02,ESE,105,0.0,0.0,95,0.00,,,0.64,WeatherCatV1.15B25,2013-12-23 02:57:00,
2013-12-22 22:02:00,27.6,26.4,30.02,ESE,105,0.0,0.0,95,0.00,,,0.64,WeatherCatV1.15B25,2013-12-23 03:02:00,
2013-12-22 22:07:00,27.6,26.4,30.03,ESE,105,0.0,0.0,95,0.00,,,0.64,WeatherCatV1.15B25,2013-12-23 03:07:00,
2013-12-22 22:12:00,27.6,26.4,30.03,ESE,105,0.0,0.0,95,0.00,,,0.64,WeatherCatV1.15B25,2013-12-23 03:12:00,
2013-12-22 22:17:00,27.6,26.4,30.02,ESE,105,0.0,0.0,95,0.00,,,0.64,WeatherCatV1.15B25,2013-12-23 03:17:00,
2013-12-22 22:22:00,27.6,26.4,30.03,ESE,105,0.0,0.0,95,0.00,,,0.64,WeatherCatV1.15B25,2013-12-23 03:22:00,
2013-12-22 22:27:00,27.6,26.4,30.03,ESE,105,0.0,0.0,95,0.00,,,0.64,WeatherCatV1.15B25,2013-12-23 03:27:00,
2013-12-22 22:32:00,27.6,26.4,30.03,ESE,105,0.0,0.0,95,0.00,,,0.64,WeatherCatV1.15B25,2013-12-23 03:32:00,
2013-12-22 22:37:00,27.5,26.3,30.03,ESE,105,0.0,0.0,95,0.00,,,0.64,WeatherCatV1.15B25,2013-12-23 03:37:00,
2013-12-22 22:42:00,27.6,26.4,30.03,ESE,105,0.0,0.0,95,0.00,,,0.64,WeatherCatV1.15B25,2013-12-23 03:42:00,
2013-12-22 22:47:00,27.6,26.4,30.03,ESE,105,0.0,0.0,95,0.00,,,0.64,WeatherCatV1.15B25,2013-12-23 03:47:00,
2013-12-22 22:52:00,27.6,26.4,30.03,ESE,105,0.0,0.0,95,0.00,,,0.64,WeatherCatV1.15B25,2013-12-23 03:52:00,
2013-12-22 22:57:00,27.7,26.5,30.04,ESE,105,0.0,0.0,95,0.00,,,0.64,WeatherCatV1.15B25,2013-12-23 03:57:00,
2013-12-22 23:02:00,27.7,26.5,30.04,ESE,105,0.0,0.0,95,0.00,,,0.64,WeatherCatV1.15B25,2013-12-23 04:02:00,
2013-12-22 23:07:00,27.7,26.5,30.04,ESE,105,0.0,0.0,95,0.00,,,0.64,WeatherCatV1.15B25,2013-12-23 04:07:00,
2013-12-22 23:12:00,27.7,26.5,30.04,ESE,105,0.0,0.0,95,0.00,,,0.64,WeatherCatV1.15B25,2013-12-23 04:12:00,
2013-12-22 23:17:00,27.7,26.5,30.04,ESE,105,0.0,0.0,95,0.00,,,0.64,WeatherCatV1.15B25,2013-12-23 04:17:00,
2013-12-22 23:22:00,27.6,26.4,30.04,ESE,105,0.0,0.0,95,0.00,,,0.64,WeatherCatV1.15B25,2013-12-23 04:22:00,
2013-12-22 23:27:00,27.6,26.4,30.05,ESE,105,0.0,0.0,95,0.00,,,0.64,WeatherCatV1.15B25,2013-12-23 04:27:00,
2013-12-22 23:32:00,27.6,26.4,30.05,ESE,105,0.0,0.0,95,0.00,,,0.64,WeatherCatV1.15B25,2013-12-23 04:32:00,
2013-12-22 23:37:00,27.6,26.4,30.05,ESE,105,0.0,0.0,95,0.00,,,0.64,WeatherCatV1.15B25,2013-12-23 04:37:00,
2013-12-22 23:42:00,27.6,26.4,30.05,ESE,105,0.0,0.0,95,0.00,,,0.64,WeatherCatV1.15B25,2013-12-23 04:42:00,
2013-12-22 23:47:00,27.6,26.4,30.05,ESE,105,0.0,0.0,95,0.00,,,0.64,WeatherCatV1.15B25,2013-12-23 04:47:00,
2013-12-22 23:52:00,27.7,26.5,30.05,ESE,105,0.0,0.0,95,0.00,,,0.64,WeatherCatV1.15B25,2013-12-23 04:52:00,
2013-12-22 23:57:00,27.6,26.4,30.05,ESE,105,0.0,0.0,95,0.00,,,0.64,WeatherCatV1.15B25,2013-12-23 04:57:00,